| time (UTC) | temp C | wind direction | speed KPH | gust KPH | rain 1hr cm | rain 24hr cm | rain mn cm | humidity % | barometer mb |
| 20260505051519 | 8 | 99 | 0.0 | 0.0 | 0.00 | 0.08 | 0.08 | 90 | 705.1 |
| 20260505041527 | 8 | 99 | 0.0 | 0.0 | 0.00 | 0.08 | 0.08 | 90 | 705.4 |
| 20260505040016 | 8 | 99 | 0.0 | 0.0 | 0.00 | 0.08 | 0.08 | 90 | 705.4 |
| 20260505034515 | 8 | 99 | 0.0 | 0.0 | 0.00 | 0.08 | 0.08 | 90 | 705.4 |
| 20260505033017 | 8 | 99 | 0.0 | 0.0 | 0.00 | 0.08 | 0.08 | 90 | 705.1 |
| 20260505031512 | 8 | 99 | 0.0 | 0.0 | 0.00 | 0.08 | 0.08 | 89 | 704.9 |
| 20260505030013 | 8 | 99 | 0.0 | 0.0 | 0.00 | 0.08 | 0.08 | 89 | 704.7 |
| 20260505024532 | 9 | 99 | 0.0 | 0.0 | 0.00 | 0.08 | 0.08 | 89 | 704.7 |
| 20260505023011 | 9 | 95 | 0.0 | 0.0 | 0.00 | 0.08 | 0.08 | 89 | 704.6 |
| 20260505021511 | 9 | 95 | 0.0 | 0.0 | 0.00 | 0.08 | 0.08 | 88 | 704.5 |
| 20260505020011 | 10 | 95 | 0.0 | 0.0 | 0.00 | 0.08 | 0.08 | 86 | 704.2 |
| 20260505014511 | 10 | 95 | 0.0 | 0.0 | 0.00 | 0.08 | 0.08 | 85 | 703.8 |
| 20260505013018 | 10 | 110 | 0.0 | 0.0 | 0.00 | 0.08 | 0.08 | 86 | 703.8 |
| 20260505011509 | 10 | 110 | 0.0 | 0.0 | 0.00 | 0.08 | 0.08 | 85 | 703.3 |
| 20260505010009 | 10 | 111 | 0.0 | 0.0 | 0.00 | 0.08 | 0.08 | 84 | 703.0 |
| 20260505004510 | 10 | 196 | 0.0 | 0.0 | 0.00 | 0.08 | 0.08 | 85 | 702.6 |
| 20260505003013 | 11 | 169 | 0.0 | 0.0 | 0.00 | 0.08 | 0.08 | 85 | 702.6 |
| 20260505001508 | 11 | 136 | 0.0 | 0.0 | 0.00 | 0.08 | 0.08 | 84 | 702.4 |
| 20260505000022 | 11 | 137 | 0.0 | 0.0 | 0.00 | 0.08 | 0.08 | 83 | 702.1 |
| 20260504234508 | 11 | 146 | 0.0 | 0.0 | 0.00 | 0.08 | 0.08 | 83 | 701.8 |
| 20260504233010 | 11 | 153 | 0.0 | 0.0 | 0.00 | 0.08 | 0.08 | 82 | 701.5 |
| 20260504231520 | 12 | 121 | 0.0 | 6.4 | 0.00 | 0.08 | 0.08 | 82 | 701.2 |
| 20260504230005 | 12 | 128 | 0.0 | 0.0 | 0.00 | 0.08 | 0.08 | 82 | 701.1 |
| 20260504224506 | 12 | 108 | 0.0 | 1.6 | 0.00 | 0.08 | 0.08 | 81 | 700.7 |
| 20260504223005 | 13 | 139 | 0.0 | 3.2 | 0.00 | 0.08 | 0.08 | 80 | 700.4 |
| 20260504221505 | 13 | 138 | 0.0 | 3.2 | 0.00 | 0.08 | 0.08 | 80 | 700.1 |
| 20260504220007 | 13 | 119 | 0.0 | 6.4 | 0.00 | 0.08 | 0.08 | 78 | 700.0 |
| 20260504214502 | 13 | 119 | 0.0 | 6.4 | 0.00 | 0.08 | 0.08 | 77 | 699.8 |
| 20260504213004 | 14 | 117 | 0.0 | 3.2 | 0.00 | 0.08 | 0.08 | 75 | 699.7 |
| 20260504211559 | 14 | 107 | 0.0 | 19.3 | 0.00 | 0.08 | 0.08 | 74 | 699.9 |
| 20260504210110 | 15 | 155 | 0.0 | 9.7 | 0.00 | 0.08 | 0.08 | 74 | 699.9 |
| 20260504204603 | 14 | 116 | 0.0 | 12.9 | 0.00 | 0.08 | 0.08 | 78 | 700.0 |
| 20260504203056 | 14 | 152 | 0.0 | 4.8 | 0.00 | 0.08 | 0.08 | 75 | 700.0 |
| 20260504201554 | 13 | 133 | 0.0 | 4.8 | 0.03 | 0.08 | 0.08 | 79 | 700.3 |
| 20260504200057 | 13 | 115 | 0.0 | 11.3 | 0.03 | 0.08 | 0.08 | 79 | 700.3 |
| 20260504194606 | 14 | 137 | 0.0 | 12.9 | 0.03 | 0.08 | 0.08 | 79 | 700.4 |
| 20260504193052 | 13 | 127 | 0.0 | 14.5 | 0.03 | 0.08 | 0.08 | 80 | 700.7 |
| 20260504191550 | 13 | 125 | 0.0 | 0.0 | 0.00 | 0.05 | 0.05 | 84 | 701.1 |
| 20260504184555 | 16 | 114 | 0.0 | 9.7 | 0.00 | 0.05 | 0.05 | 78 | 701.2 |
| 20260504183044 | 15 | 132 | 0.0 | 30.6 | 0.00 | 0.05 | 0.05 | 80 | 701.4 |
| 20260504181546 | 16 | 128 | 0.0 | 3.2 | 0.00 | 0.05 | 0.05 | 77 | 701.6 |
| 20260504180109 | 15 | 133 | 0.0 | 1.6 | 0.00 | 0.05 | 0.05 | 80 | 701.7 |
| 20260504174537 | 15 | 119 | 0.0 | 1.6 | 0.00 | 0.05 | 0.05 | 79 | 702.3 |
| 20260504173038 | 15 | 128 | 0.0 | 4.8 | 0.00 | 0.05 | 0.05 | 73 | 702.2 |
| 20260504171535 | 15 | 103 | 0.0 | 3.2 | 0.00 | 0.05 | 0.05 | 74 | 702.5 |
| 20260504081518 | 8 | 141 | 0.0 | 0.0 | 0.00 | 0.05 | 0.03 | 91 | 702.3 |